Regional Weather Roundup
Issued by NWS Wakefield, VA

Current Version | Previous Version | Text Only | Print | Product List | Glossary Off
Versions: 1 2 3 4 5 6 7 8 9 10 11 12 13 14 15 16 17 18 19 20 21 22 23 24 25 26 27 28 29 30 31 32 33 34 35 36 37 38 39 40 41 42 43 44 45 46 47 48 49 50

000
ASUS41 KAKQ 130415
RWRAKQ

REGIONAL WEATHER ROUNDUP
NATIONAL WEATHER SERVICE WAKEFIELD VA
1100 PM EST FRI FEB 12 2016

Note: "fair" indicates few or no clouds below 12,000 feet with no
significant weather and/or obstructions to visibility. * = Denotes
station may not report precipitation (e.g., rain,snow,etc.),
thunder or fog.

VAZ042-051-052>054-056-130500-
NORTHERN VIRGINIA

CITY           SKY/WX    TMP DP  RH WIND       PRES   REMARKS
WASH NATIONAL  FLURRIES  28  17  63 NW10      30.03S WCI  19
DULLES         CLOUDY    25  19  78 W5        30.00F
FORT BELVOIR   FLURRIES  28  14  54 NW8       30.02S
QUANTICO       CLOUDY    30  14  51 NW12      30.04R WCI  20
FREDERICKSBRG* MOCLDY    28  18  67 CALM      30.01S
STAFFORD*      MOCLDY    25  13  60 N5        30.05S
WARRENTON      MOCLDY    27  21  80 CALM      30.00S
CULPEPER*      CLOUDY    25  18  76 CALM      30.01S
MANASSAS*      MOCLDY    27  19  74 NW5       30.01F
LEESBURG*      CLOUDY    28  25  86 W3        30.00F
WINCHESTER     CLOUDY    28  16  59 NW15G21   29.97S WCI  17
FRONT ROYAL*   CLOUDY    25  21  86 NW5       29.97F
LURAY*         CLOUDY    28  16  59 NW9       29.96S
$$

VAZ048-049-060>072-079>083-130500-
CENTRAL AND SOUTH CENTRAL VIRGINIA

CITY           SKY/WX    TMP DP  RH WIND       PRES   REMARKS
RICHMOND       MOCLDY    24  19  81 CALM      30.01R
CHESTERFIELD*  MOCLDY    25   7  46 CALM      30.01S
PETERSBURG*    FAIR      24  18  78 CALM      30.01S
HANOVER        CLOUDY    27  18  69 W3        30.02S
TAPPAHANNOCK*  CLOUDY    26  20  77 CALM      30.02R
QUINTON*       MOCLDY    24  20  84 CALM      30.00F
CHARLOTTSVILLE CLOUDY    29  19  66 CALM      29.97S
GORDONSVILLE*  CLOUDY    27  20  75 CALM      29.98S
ORANGE*        CLOUDY    30  21  69 CALM      30.00F
LOUISA*        CLOUDY    28  19  69 CALM      29.97F
BUMPASS*       CLOUDY    27  19  71 CALM      30.00S
FARMVILLE*     CLOUDY    30  20  67 CALM      29.99S
CREWE*         CLOUDY    29  19  66 W5        30.00S
FORT PICKETT*  MOCLDY    27  19  71 W7        30.00S
CHASE CITY*    CLOUDY    27  21  79 CALM      30.01S
CLARKSVILLE*   CLOUDY    30  19  64 CALM      30.01S
SOUTH HILL*    CLOUDY    26  19  75 CALM      30.07S
LAWRENCEVILLE* CLOUDY    26  21  82 W3        30.01S
EMPORIA*       CLOUDY    27  21  80 S3        30.03F
$$

VAZ088>098-130500-
SOUTHEAST VIRGINIA

CITY           SKY/WX    TMP DP  RH WIND       PRES   REMARKS
NORFOLK        FAIR      27  21  78 CALM      30.01S
VIRGINIA BEACH FAIR      28  22  78 NW6       30.01S
NORFOLK NAVAL  FAIR      28  22  78 W10       30.02F WCI  19
WEST POINT*    FAIR      25  20  80 CALM      30.03S
SALUDA*        CLOUDY    24  22  92 CALM      30.01S
NEWPORT NEWS   CLOUDY    26  23  88 W3        30.01F
LANGLEY AFB    FAIR      25  22  89 W1        30.00F
FORT EUSTIS    CLOUDY    27  24  91 W2        29.99F
WILLIAMSBURG*  MOCLDY    27  25  93 CALM      30.02S
HR EXEC AP*    FAIR      21  18  86 CALM      30.03F
FRANKLIN*      CLOUDY    27  22  82 W3        30.02F
US460-WAKEFLD  CLOUDY    24  20  84 CALM      30.01F
$$

VAZ020-022-025-037-045-130500-
WEST CENTRAL AND SOUTHWEST VIRGINIA

CITY           SKY/WX    TMP DP  RH WIND       PRES   REMARKS
STAUNTON*      CLOUDY    32  13  44 NW16      29.97R WCI  22
WAYNESBORO*    CLOUDY    28  10  47 W10G21    29.94R WCI  19
HOT SPRINGS VA LGT SNOW  17  11  75 W23G40    29.78S WCI   0
LYNCHBURG      CLOUDY    32  18  56 VRB5      29.99S
DANVILLE       CLOUDY    34  18  52 NW6       30.02S
SOUTH BOSTON*  CLOUDY    28  19  69 CALM      30.02S
MARTINSVILLE   CLOUDY    33  15  48 NW15G24   30.04R WCI  23
ROANOKE        MOCLDY    32  15  49 NW18G26   30.00S WCI  20
BLACKSBURG     CLOUDY    28  19  67 W17G30    29.99R WCI  16
DUBLIN*        LGT SNOW  28  22  75 W10G17    30.00S WCI  19
MARION*        LGT SNOW  27  20  77 W20       30.02R WCI  13
HILLSVILLE*    FLURRIES  26  18  73 W24G37    29.93F WCI  10
RICHLANDS*     LGT SNOW  24  18  75 W10G21    30.03S WCI  14
WISE*          CLOUDY    25  19  80 NW16      30.08R WCI  12
ABINGDON*      LGT SNOW  29  22  75 W9G17     30.09S
$$

MDZ021>025-VAZ099-100-130500-
SOUTHERN MARYLAND AND THE DELMARVA PENINSULA

CITY           SKY/WX    TMP DP  RH WIND       PRES   REMARKS
PATUXENT RIVER MOCLDY    25  18  74 SW5       30.01S
BAY BRIDGE APT   N/A     28  14  54 W3        30.01S
LEONARDTOWN      N/A     27  19  74 CALM        N/A
DOVER          CLOUDY    24  21  91 S3        29.98F
GEORGETOWN     CLOUDY    23  19  85 CALM      30.00F
EASTON         CLOUDY    26  18  71 CALM      30.03F
CAMBRIDGE      CLOUDY    25  19  80 CALM      29.99F
SALISBURY      CLOUDY    24  18  77 CALM      30.00S
OCEAN CITY     CLOUDY    23  19  85 CALM      30.01S
WALLOPS ISLAND CLOUDY    25  21  85 NW3       30.01F
ACCOMACK*      CLOUDY    25  21  86 CALM      29.99F
$$

NCZ012>017-030>032-130500-
NORTH CENTRAL AND EASTERN NORTH CAROLINA

CITY           SKY/WX    TMP DP  RH WIND       PRES   REMARKS
ROANOKE RAPIDS CLOUDY    28  23  80 SW7       30.03S
RALEIGH        MOCLDY    30  22  72 SW7       30.03F
ELIZABETH CITY CLEAR     25  23  92 W7        30.01F
AHOSKIE*       NOT AVBL
EDENTON*       PTCLDY    30  28  93 W7        30.03F
CURRITUCK*     CLEAR     27  26  97 CALM      30.02S
KILL DEVIL HLS CLOUDY    32  31  96 W5        29.99S
MANTEO         CLOUDY    32  32  99 NW8       30.00F
CAPE HATTERAS  CLOUDY    35  33  92 NW8       30.00F
TARBORO*       CLOUDY    30  26  86 W3        30.05F
GOLDSBORO      MOCLDY    28  28 100 SW5       30.03F
WASHINGTON     PTCLDY    29  26  91 W7        30.04S
GREENVILLE     CLOUDY    30  28  93 CALM      30.06F
NEW BERN       CLOUDY    32  30  92 W7        30.05F FOG
WILMINGTON     CLEAR     31  29  92 NW6       30.05F
$$

VAZ048-130500-
ELSEWHERE

CITY           SKY/WX    TMP DP  RH WIND       PRES   REMARKS
HARRISBURG PA  CLOUDY    22  17  81 S6        29.96F
BALTIMORE      CLOUDY    24  17  74 W7        30.00S
ANNAPOLIS      CLOUDY    27  17  66 W5        30.01S
ANDREWS AFB    MIX PCPN  27  15  59 W8        29.99S
PHILADELPHIA   FLURRIES  23  16  74 W7        29.99F
HENDERSON NC   CLOUDY    30  20  67 SW5       30.01F
GREENSBORO     CLOUDY    34  21  59 NW5       30.00S
ROCKY MOUNT    CLOUDY    30  25  81 SW3       30.04F
$$

VAZ100-130500-
MARINE

STATION/POSITION TIME  TEMP    WIND        PRES    WAVE   SWELL
                       AIR SEA DIR/SP/G            HT/PER HT/PER
                 (UTC) (F)     (DEG/KT/KT) (MB)    (FT/S) (FT/S)
BRANDYWINE LGT   0300   24                 1015.9F
CAPE MAY NJ      0300   23 38              1015.7F
LEWES DE         0300   24 38              1016.0F
15NM E FENWICK I 0350   26 42              1015.6F   1/ 3
OCEAN-CITY-INLET 0300   24 40              1015.4S
WACHAPREAGUE VA  0300   26 37              1016.1F
THOMAS POINT MD  0400   27     270/  9     1017.0S
GOOSES REEF MD   0400   29 37  260/  8/ 12 1017.1F   1
COVE POINT MD    0300   26                 1016.7S
SOLOMONS ISLAND  0300   28 39                N/A
BISHOPS HEAD MD  0300   28 34              1015.0F
PINEY POINT MD   0300          260/  4/  6   N/A
POTOMAC MD       0400   28 38  270/  8/ 10 1015.1R   1
CAMBRIDGE MD     0300   26 37              1015.4F
LEWISETTA VA     0300   27 37              1015.9F
RAPPAHANNOCK LGT 0300                      1016.4R
STINGRAY PT      0400   28 39  280/  8/ 10 1016.0F
YORK RVR RNG VA  0300   29                 1015.7R
YORKTOWN VA      0300   28 40              1016.2R
JAMESTOWN VA     0400   27 40  240/  4/  6   N/A     0
DOMINION TERM VA 0300   28                 1016.4R
KIPTOPEKE VA     0300      39                N/A
CHES BAY BRIDGE  0300   29 41              1015.8R
CAPE HENRY VA    0300   28                   N/A
CHESAPEAKE LGHT  0300   29     300/ 13/ 14 1016.8R
WILLOUBY STN VA  0300   28                 1017.0R
CAPE HENRY BUOY  0328      41                N/A     2/ 6
1ST LANDING BUOY 0400      40                N/A     1/ 3
CAPE CHARLES BUO 0326      42                N/A     1/10   2/10
OFFSHORE WE BUOY 0321      44                N/A     2/ 6   2/ 6
64NM E OF VA BCH 0350   37 48  310/ 14/ 17 1014.5F   2/ 8   2/ 8
DUCK PIER NC     0300   30                 1015.3F
44100 DUCK FRF   0324      45                N/A     2/ 6
44056 DUCK FRF   0311      42                N/A     2/ 7
OREGON INLET NC  0300   33 42              1015.7R
HATTERAS NC      0300   36 45              1015.5R
DIAMOND SHLS NC  0350   42 71  320/ 17/ 23 1015.4R   4/ 8   3/ 8
$$



USA.gov is the U.S. government's official web portal to all federal, state and local government web resources and services.